Tracking 31027 objects as of 19-Jul-2025
HD Live streaming from Space Station
objects crossing your sky now

DELTA 1 DEB

Track DELTA 1 DEB now!
10-day predictions


NORAD ID: 19594
Int'l Code: 1978-026HN
Perigee: 690.4 km
Apogee: 804.4 km
Inclination: 98.9 °
Period: 99.6 minutes
Semi major axis: 7118 km
RCS: 0.0101 m2 (small)
Launch date: March 5, 1978
Source: United States (US)
Launch site: AIR FORCE WESTERN TEST RANGE (AFWTR)

Note: This is SATELLITE DEBRIS
Your satellite tracking list
FLOCK 4X 28
Track 1 satellite(s)




NASA's NSSDC Master Catalog

Two Line Element Set (TLE):
1 19594U 78026HN  25198.54929868  .00009726  00000-0  26604-2 0  9991
2 19594  98.9083 236.7308 0080105  73.0647 287.9305 14.45530380657686
Source of the keplerian elements: AFSPC